Nairobi Jomo, Kenya

5:37 AM EAT on September 01, 2016 (GMT +0300)
Jomo Kenyatta

Weather History for HKJK - November, 2013

Change the Weather History Date:

Friday, November 1, 2013

  Actual Average (HKNW) Record (HKNW)
Temperature  
Mean Temperature 70 °F -  
Max Temperature 80 °F 73 °F 82 °F (2011)
Min Temperature 60 °F 60 °F 60 °F (1997)
Cooling Degree Days 5    
Growing Degree Days 20 (Base 50)    
Moisture  
Dew Point 55 °F    
Average Humidity 63    
Maximum Humidity 94    
Minimum Humidity 37    
Precipitation  
Precipitation 0.00 in - - ()
Sea Level Pressure  
Sea Level Pressure 30.10 in    
Wind  
Wind Speed 10 mph ()    
Max Wind Speed 18 mph    
Max Gust Speed -    
Visibility 6.2 miles    
Events      
Averages and records for this station are not official NWS values.
T = Trace of Precipitation, MM = Missing Value Source: Averaged Metar Reports

Daily Weather History Graph

Daily Weather History Graph

Search for Another Location

Airport or City:

Trip Planner

Search our weather history database for the weather conditions in past years. The results will help you decide how hot, cold, wet, or windy it might be!

Date:

Astronomy

Nov. 01, 2013 Rise Set
Actual Time 6:11 AM EAT 6:20 PM EAT
Civil Twilight 5:49 AM EAT 6:42 PM EAT
Nautical Twilight 5:24 AM EAT 7:06 PM EAT
Astronomical Twilight 4:59 AM EAT 7:31 PM EAT
Moon 4:12 AM EAT 4:36 PM EAT
Length of Visible Light 12h 52m
Length of Day
12h 09m
Waning Crescent, 6% of the Moon is Illuminated
Nov 1
Waning Crescent
Nov 3
New
Nov 10
First Quarter
Nov 17
Full
Nov 25
Last Quarter

Hourly Weather History & Observations

Time (EAT) Temp. Dew Point Humidity Pressure Visibility Wind Dir Wind Speed Gust Speed Precip Events Conditions
12:00 AM 69.8 °F 55.4 °F 60% 30.15 in 6.2 mi ENE 12.7 mph - N/A   Scattered Clouds
1:00 AM 68.0 °F 55.4 °F 64% 30.12 in 6.2 mi NE 10.4 mph - N/A   Scattered Clouds
2:00 AM 66.2 °F 55.4 °F 68% 30.09 in 6.2 mi NE 8.1 mph - N/A   Scattered Clouds
2:30 AM 66.2 °F 55.4 °F 68% 30.09 in 6.2 mi NE 10.4 mph - N/A   Scattered Clouds
3:00 AM 66.2 °F 55.4 °F 68% 30.09 in 6.2 mi NNE 5.8 mph - N/A   Scattered Clouds
4:00 AM 64.4 °F 57.2 °F 77% 30.09 in 6.2 mi NNE 8.1 mph - N/A   Scattered Clouds
5:00 AM 62.6 °F 59.0 °F 88% 30.09 in 6.2 mi ENE 11.5 mph - N/A   Scattered Clouds
6:00 AM 60.8 °F 59.0 °F 94% 30.12 in 6.2 mi NNE 8.1 mph - N/A   Partly Cloudy
7:00 AM 60.8 °F 59.0 °F 94% 30.15 in 6.2 mi NE 6.9 mph - N/A   Mostly Cloudy
8:00 AM 66.2 °F 60.8 °F 83% 30.18 in 6.2 mi NNE 11.5 mph - N/A   Mostly Cloudy
5:30 PM 80.6 °F 51.8 °F 37% 30.01 in 6.2 mi ENE 16.1 mph - N/A   Scattered Clouds
6:00 PM 77.0 °F 51.8 °F 41% 30.01 in 6.2 mi ENE 15.0 mph - N/A   Scattered Clouds
6:30 PM 75.2 °F 51.8 °F 44% 30.04 in 6.2 mi ENE 13.8 mph - N/A   Mostly Cloudy
7:00 PM 75.2 °F 51.8 °F 44% 30.06 in 6.2 mi ENE 12.7 mph - N/A   Mostly Cloudy
7:30 PM 73.4 °F 51.8 °F 47% 30.06 in 6.2 mi ENE 13.8 mph - N/A   Scattered Clouds
8:00 PM 73.4 °F 53.6 °F 50% 30.06 in 6.2 mi ENE 10.4 mph - N/A   Scattered Clouds
8:30 PM 71.6 °F 53.6 °F 53% 30.09 in 6.2 mi NE 10.4 mph - N/A   Mostly Cloudy
9:00 PM 71.6 °F 53.6 °F 53% 30.09 in 6.2 mi NE 10.4 mph - N/A   Mostly Cloudy
9:30 PM 71.6 °F 55.4 °F 57% 30.12 in 6.2 mi ENE 15.0 mph - N/A   Mostly Cloudy
10:00 PM 71.6 °F 57.2 °F 60% 30.12 in 6.2 mi NE 18.4 mph - N/A   Mostly Cloudy
10:30 PM 71.6 °F 57.2 °F 60% 30.15 in 6.2 mi ENE 15.0 mph - N/A   Mostly Cloudy
11:00 PM 69.8 °F 57.2 °F 64% 30.15 in 6.2 mi ENE 15.0 mph - N/A   Mostly Cloudy
11:30 PM 69.8 °F 57.2 °F 64% 30.12 in 6.2 mi ENE 13.8 mph - N/A   Mostly Cloudy